Location: Jetmore Oil Field
(38.1181°N, 99.9337°W)
Time: 09:26:47
(UTC+00:00)

STARLINK-1046 - Pass Details

Date: 17 February 2020
Orbit: 549 x 550 km, 53.0° (Epoch: 10 April)

Event Time Altitude Azimuth Distance (km) Brightness Sun altitude
Exits shadow 11:46:18 62° 286° (WNW) 620 3.5 -20.6°
Maximum altitude 11:46:53 76° 224° (SW) 569 3.5 -20.5°
Drops below altitude 10° 11:51:01 10° 138° (SE) 1,818 6.8 -19.7°
Sets 11:53:14 0° 137° (SE) 2,708 7.8 -19.3°
